TimePDT,TemperatureF,Dew PointF,Humidity,Sea Level PressureIn,VisibilityMPH,Wind Direction,Wind SpeedMPH,Gust SpeedMPH,PrecipitationIn,Events,Conditions,WindDirDegrees,DateUTC
12:52 AM,54.0,42.1,64,29.79,10.0,NE,5.8,-,N/A,,Clear,40,2013-05-21 07:52:00
1:52 AM,53.1,43.0,69,29.76,10.0,NNE,6.9,-,N/A,,Clear,30,2013-05-21 08:52:00
2:52 AM,52.0,42.1,69,29.73,10.0,North,6.9,-,N/A,,Clear,360,2013-05-21 09:52:00
3:52 AM,51.1,42.1,71,29.71,10.0,North,9.2,-,N/A,,Clear,350,2013-05-21 10:52:00
4:52 AM,53.1,42.1,66,29.68,10.0,NNE,8.1,-,N/A,,Clear,20,2013-05-21 11:52:00
5:52 AM,51.1,43.0,74,29.67,10.0,Calm,Calm,-,N/A,,Clear,0,2013-05-21 12:52:00
6:52 AM,55.0,44.1,67,29.65,10.0,Calm,Calm,-,N/A,,Clear,0,2013-05-21 13:52:00
7:52 AM,59.0,45.0,60,29.65,10.0,SSW,6.9,-,N/A,,Clear,210,2013-05-21 14:52:00
8:52 AM,61.0,46.0,58,29.65,10.0,SSW,3.5,-,N/A,,Mostly Cloudy,210,2013-05-21 15:52:00
9:52 AM,66.0,46.0,48,29.63,10.0,WSW,9.2,-,N/A,,Clear,240,2013-05-21 16:52:00
10:52 AM,66.9,41.0,39,29.64,10.0,West,10.4,20.7,N/A,,Overcast,270,2013-05-21 17:52:00
11:52 AM,61.0,48.0,62,29.65,10.0,WSW,20.7,-,0.00,Rain,Light Rain,250,2013-05-21 18:52:00
12:52 PM,55.9,46.9,72,29.68,10.0,WSW,19.6,25.3,0.00,Rain,Light Rain,240,2013-05-21 19:52:00
1:52 PM,52.0,48.9,89,29.73,7.0,WSW,10.4,-,0.06,Rain,Light Rain,240,2013-05-21 20:52:00
2:52 PM,52.0,48.0,86,29.70,10.0,SE,4.6,-,0.04,,Overcast,140,2013-05-21 21:52:00
3:08 PM,53.6,48.2,82,29.71,10.0,South,13.8,-,N/A,,Overcast,170,2013-05-21 22:08:00
3:37 PM,53.6,48.2,82,29.72,10.0,South,15.0,-,N/A,,Mostly Cloudy,180,2013-05-21 22:37:00
3:48 PM,53.6,48.2,82,29.71,10.0,South,12.7,-,N/A,,Mostly Cloudy,190,2013-05-21 22:48:00
3:52 PM,54.0,48.0,80,29.71,10.0,SSW,13.8,-,N/A,,Scattered Clouds,200,2013-05-21 22:52:00
4:52 PM,55.9,46.0,69,29.70,10.0,South,10.4,-,N/A,,Partly Cloudy,180,2013-05-21 23:52:00
5:34 PM,57.2,46.4,67,29.71,10.0,South,9.2,-,N/A,,Mostly Cloudy,170,2013-05-22 00:34:00
5:50 PM,57.2,46.4,67,29.71,10.0,SSE,11.5,-,N/A,,Scattered Clouds,150,2013-05-22 00:50:00
5:52 PM,57.0,48.0,72,29.71,10.0,SSE,11.5,-,N/A,,Scattered Clouds,160,2013-05-22 00:52:00
6:52 PM,55.9,46.9,72,29.72,10.0,South,10.4,-,N/A,,Clear,170,2013-05-22 01:52:00
7:52 PM,55.0,48.0,77,29.72,10.0,SE,8.1,-,N/A,,Partly Cloudy,140,2013-05-22 02:52:00
8:52 PM,52.0,48.0,86,29.73,10.0,SE,6.9,-,N/A,,Mostly Cloudy,130,2013-05-22 03:52:00
9:52 PM,51.1,46.0,83,29.74,10.0,ESE,12.7,-,N/A,,Overcast,120,2013-05-22 04:52:00
10:52 PM,50.0,44.1,80,29.75,10.0,ESE,16.1,20.7,N/A,,Mostly Cloudy,120,2013-05-22 05:52:00
11:52 PM,48.0,42.1,80,29.75,10.0,ESE,12.7,-,N/A,,Overcast,120,2013-05-22 06:52:00